2017-008D

Last updated on Wed Mar 01 2017 00:15:03 GMT+0000 (Coordinated Universal Time)

1 41951U 17008D 17059.68745058 .00001589 00000-0 73875-4 0 9998 2 41951 97.5104 121.2894 0008033 203.0890 156.9995 15.21448116 2022
UTC large
Height (km)
Speed (km/s)
/
Latitude / Longitude
Inclination (degrees)
Orbital Period (minutes)
Azimuth
Elevation
Range (km)
Doppler Factor

Next 0 passes for location: London (51.5072 / 0.1276)

Sorry there are no passes over London.